Total_Precipitation_Accumulation
0.08 0.14 0.30 0.29 0.31 0.29 0.29 0.26 0.26 0.28 0.35 0.43 0.41 0.36 0.34 0.35 0.34 0.29 0.33 0.36 0.38 0.42 0.40 0.41 0.44 0.46 0.49 0.50 0.39 0.22 0.15 0.14 0.11 0.10 0.10 0.12 0.14 0.16 0.14 0.14 0.17 0.20 0.22
0.07 0.13 0.27 0.29 0.33 0.35 0.33 0.28 0.26 0.28 0.34 0.43 0.46 0.44 0.43 0.42 0.40 0.36 0.35 0.37 0.39 0.41 0.41 0.39 0.34 0.28 0.26 0.24 0.19 0.15 0.12 0.08 0.05 0.04 0.03 0.05 0.08 0.11 0.10 0.10 0.13 0.20 0.24
0.08 0.14 0.25 0.30 0.34 0.35 0.34 0.29 0.26 0.29 0.35 0.41 0.47 0.52 0.48 0.46 0.44 0.44 0.44 0.41 0.44 0.41 0.43 0.36 0.27 0.21 0.17 0.14 0.12 0.11 0.10 0.06 0.04 0.03 0.04 0.06 0.08 0.12 0.13 0.14 0.16 0.22 0.26
0.09 0.16 0.24 0.32 0.36 0.37 0.35 0.34 0.30 0.32 0.37 0.41 0.47 0.53 0.51 0.51 0.52 0.49 0.46 0.42 0.42 0.38 0.39 0.30 0.21 0.17 0.13 0.11 0.10 0.09 0.08 0.08 0.06 0.04 0.06 0.08 0.11 0.18 0.22 0.24 0.27 0.27 0.27
0.16 0.21 0.35 0.42 0.43 0.42 0.40 0.41 0.38 0.36 0.40 0.45 0.52 0.57 0.58 0.59 0.59 0.52 0.45 0.38 0.33 0.30 0.31 0.26 0.17 0.13 0.10 0.08 0.07 0.07 0.08 0.07 0.04 0.03 0.04 0.08 0.14 0.22 0.25 0.27 0.30 0.31 0.28
0.26 0.33 0.45 0.53 0.58 0.52 0.48 0.44 0.45 0.44 0.43 0.46 0.53 0.57 0.59 0.60 0.63 0.54 0.46 0.34 0.27 0.24 0.25 0.22 0.16 0.13 0.11 0.09 0.08 0.08 0.08 0.06 0.04 0.03 0.05 0.09 0.14 0.23 0.23 0.24 0.28 0.33 0.37
0.44 0.53 0.59 0.66 0.71 0.66 0.59 0.53 0.48 0.49 0.48 0.49 0.56 0.58 0.61 0.61 0.61 0.60 0.50 0.32 0.24 0.23 0.24 0.21 0.18 0.17 0.15 0.12 0.10 0.10 0.09 0.06 0.03 0.03 0.06 0.09 0.15 0.23 0.25 0.27 0.30 0.32 0.37
0.67 0.79 0.81 0.87 0.82 0.77 0.68 0.64 0.57 0.56 0.55 0.57 0.62 0.62 0.65 0.66 0.63 0.62 0.52 0.37 0.28 0.25 0.25 0.24 0.20 0.19 0.18 0.15 0.13 0.12 0.10 0.06 0.03 0.03 0.05 0.09 0.15 0.24 0.29 0.29 0.29 0.28 0.30
1.06 1.14 1.03 1.00 0.88 0.87 0.79 0.68 0.64 0.62 0.62 0.64 0.66 0.64 0.64 0.63 0.63 0.60 0.52 0.40 0.35 0.31 0.30 0.28 0.25 0.21 0.19 0.17 0.15 0.11 0.08 0.06 0.03 0.03 0.04 0.07 0.13 0.23 0.27 0.32 0.34 0.31 0.31
1.41 1.53 1.41 1.23 1.08 0.97 0.90 0.75 0.67 0.63 0.62 0.61 0.57 0.49 0.47 0.53 0.59 0.54 0.42 0.36 0.34 0.32 0.30 0.28 0.26 0.23 0.20 0.17 0.14 0.10 0.07 0.06 0.04 0.04 0.06 0.09 0.15 0.25 0.31 0.35 0.37 0.35 0.33
1.70 1.77 1.79 1.61 1.34 1.15 1.00 0.83 0.79 0.70 0.63 0.60 0.51 0.41 0.40 0.46 0.50 0.42 0.31 0.28 0.31 0.33 0.30 0.27 0.25 0.23 0.19 0.14 0.11 0.09 0.08 0.05 0.05 0.05 0.06 0.12 0.23 0.31 0.32 0.30 0.30 0.30 0.32
1.74 1.82 1.95 1.83 1.64 1.43 1.19 0.95 0.94 0.87 0.71 0.61 0.50 0.46 0.44 0.44 0.48 0.40 0.32 0.28 0.30 0.31 0.29 0.31 0.29 0.27 0.23 0.16 0.13 0.11 0.10 0.07 0.07 0.07 0.08 0.15 0.26 0.34 0.31 0.28 0.27 0.27 0.30
1.85 2.00 2.09 2.10 1.85 1.71 1.52 1.16 0.95 0.94 0.88 0.77 0.61 0.56 0.54 0.54 0.54 0.52 0.43 0.38 0.34 0.28 0.26 0.26 0.28 0.23 0.21 0.19 0.17 0.15 0.13 0.12 0.10 0.09 0.10 0.12 0.18 0.29 0.33 0.30 0.29 0.28 0.29
2.01 2.07 2.14 2.30 2.13 1.86 1.69 1.47 1.22 1.04 0.97 0.91 0.76 0.65 0.66 0.63 0.54 0.49 0.45 0.40 0.39 0.33 0.29 0.27 0.24 0.21 0.20 0.19 0.18 0.18 0.17 0.15 0.12 0.11 0.11 0.13 0.14 0.21 0.28 0.33 0.34 0.34 0.34
2.03 2.13 2.18 2.26 2.30 2.09 1.89 1.66 1.46 1.27 1.10 1.11 1.04 0.88 0.77 0.72 0.61 0.51 0.46 0.47 0.47 0.43 0.38 0.33 0.29 0.26 0.24 0.23 0.20 0.18 0.19 0.20 0.17 0.14 0.13 0.13 0.13 0.15 0.22 0.31 0.40 0.46 0.49
1.92 2.09 2.17 2.24 2.35 2.33 2.07 1.87 1.64 1.40 1.23 1.23 1.20 1.08 1.02 0.94 0.88 0.77 0.64 0.57 0.53 0.52 0.50 0.44 0.40 0.37 0.33 0.30 0.24 0.21 0.20 0.22 0.22 0.20 0.18 0.17 0.14 0.14 0.16 0.25 0.38 0.49 0.55
1.87 2.08 2.08 2.15 2.34 2.41 2.30 2.12 1.86 1.64 1.39 1.29 1.22 1.16 1.17 1.10 1.04 0.99 0.89 0.81 0.73 0.69 0.65 0.60 0.56 0.53 0.45 0.39 0.33 0.30 0.27 0.27 0.27 0.27 0.26 0.24 0.20 0.17 0.17 0.22 0.31 0.42 0.51
1.93 2.11 2.14 2.13 2.30 2.36 2.38 2.40 2.24 2.02 1.76 1.49 1.36 1.31 1.27 1.25 1.19 1.12 1.02 0.88 0.77 0.81 0.81 0.75 0.67 0.60 0.49 0.41 0.35 0.32 0.29 0.29 0.29 0.31 0.33 0.33 0.30 0.25 0.21 0.20 0.22 0.31 0.41
1.89 2.06 2.23 2.21 2.34 2.44 2.43 2.48 2.45 2.25 2.10 1.89 1.57 1.36 1.31 1.34 1.34 1.29 1.17 1.07 0.99 0.84 0.80 0.81 0.74 0.64 0.56 0.49 0.42 0.35 0.30 0.27 0.27 0.27 0.27 0.29 0.32 0.31 0.28 0.26 0.25 0.26 0.33
1.84 2.00 2.17 2.23 2.33 2.59 2.68 2.64 2.62 2.36 2.12 2.09 1.86 1.57 1.41 1.41 1.46 1.41 1.29 1.22 1.21 1.10 0.93 0.81 0.76 0.72 0.63 0.60 0.57 0.49 0.42 0.36 0.33 0.29 0.27 0.27 0.26 0.28 0.27 0.24 0.23 0.24 0.26
1.78 1.94 2.06 2.15 2.22 2.45 2.61 2.61 2.54 2.38 2.13 2.01 1.97 1.81 1.66 1.57 1.59 1.59 1.46 1.37 1.31 1.21 1.07 0.97 0.89 0.85 0.82 0.78 0.74 0.61 0.50 0.46 0.44 0.39 0.37 0.36 0.33 0.32 0.31 0.28 0.25 0.23 0.22
1.51 1.75 1.96 2.05 2.15 2.17 2.25 2.46 2.62 2.69 2.49 2.18 2.00 1.90 1.76 1.67 1.65 1.61 1.59 1.54 1.46 1.38 1.32 1.25 1.18 1.09 1.03 1.04 1.01 0.93 0.74 0.56 0.44 0.39 0.41 0.40 0.38 0.37 0.35 0.32 0.29 0.27 0.24
1.31 1.54 1.83 1.99 2.10 2.10 2.14 2.40 2.62 2.77 2.62 2.31 1.96 1.79 1.79 1.79 1.78 1.69 1.68 1.69 1.61 1.51 1.42 1.37 1.32 1.26 1.18 1.15 1.16 1.18 0.99 0.71 0.49 0.39 0.35 0.36 0.37 0.38 0.38 0.40 0.41 0.38 0.33
1.17 1.34 1.52 1.71 1.87 2.04 2.11 2.16 2.23 2.33 2.32 2.11 2.00 1.91 1.92 1.90 1.88 1.82 1.78 1.77 1.73 1.64 1.49 1.43 1.37 1.29 1.24 1.19 1.17 1.09 0.97 0.78 0.70 0.54 0.39 0.36 0.37 0.37 0.38 0.41 0.45 0.48 0.48
1.04 1.28 1.41 1.49 1.65 1.85 2.00 2.07 2.18 2.15 2.18 2.24 2.20 2.12 2.03 1.97 1.91 1.83 1.78 1.77 1.70 1.63 1.58 1.59 1.52 1.45 1.35 1.25 1.19 1.14 1.11 0.94 0.78 0.73 0.56 0.42 0.41 0.40 0.41 0.44 0.47 0.49 0.51
0.93 1.13 1.34 1.36 1.44 1.57 1.78 1.99 2.07 1.99 2.00 2.05 2.03 2.00 1.99 1.99 1.95 1.85 1.74 1.69 1.65 1.63 1.60 1.61 1.65 1.57 1.51 1.42 1.33 1.25 1.24 1.17 0.98 0.91 0.81 0.59 0.51 0.45 0.43 0.43 0.44 0.46 0.49